EW8824 Weather Reports


Display with metric or nautical units.
time (UTC)temp
F
wind
direction
speed
MPH
gust
MPH
rain 1hr
in
rain 24hr
in
rain mn
in
humidity
%
barometer
mb
20260906093602 72 5 2.0 3.0 0.00 0.33 0.00 93 1013.6
20260906093101 72 0 1.0 4.0 0.00 0.33 0.00 93 1013.6
20260906092601 72 333 2.0 4.0 0.00 0.33 0.00 93 1013.7
20260906092100 72 13 1.0 3.0 0.00 0.33 0.00 93 1013.6
20260906091601 72 13 0.0 3.0 0.00 0.33 0.00 93 1013.6
20260906091101 72 13 1.0 3.0 0.00 0.33 0.00 93 1013.6
20260906090602 72 39 1.0 2.0 0.00 0.33 0.00 93 1013.5
20260906090432 72 44 0.0 2.0 0.00 0.33 0.00 93 1013.5
20260906085601 72 44 0.0 2.0 0.00 0.33 0.00 93 1013.5
20260906085102 72 44 1.0 2.0 0.00 0.33 0.00 93 1013.4
20260906084603 72 44 0.0 2.0 0.00 0.33 0.00 93 1013.5
20260906084420 72 44 0.0 3.0 0.00 0.33 0.00 93 1013.5
20260906083604 72 44 1.0 4.0 0.00 0.33 0.00 93 1013.4
20260906083103 72 34 2.0 4.0 0.00 0.33 0.00 93 1013.3
20260906082815 72 34 0.0 3.0 0.00 0.33 0.00 93 1013.4
20260906082716 72 34 0.0 2.0 0.00 0.33 0.00 93 1013.3
20260906081607 72 34 1.0 3.0 0.00 0.33 0.00 93 1013.3
20260906081103 72 34 1.0 4.0 0.00 0.33 0.00 93 1013.3
20260906080559 72 0 1.0 4.0 0.00 0.33 0.00 94 1013.4
20260906080056 71 9 1.0 4.0 0.00 0.33 0.00 93 1013.3
20260906075553 71 347 0.0 2.0 0.00 0.33 0.00 93 1013.3
20260906075043 71 347 0.0 2.0 0.00 0.33 0.00 93 1013.3
20260906074529 71 347 0.0 1.0 0.00 0.33 0.00 93 1013.2
20260906074029 71 347 0.0 2.0 0.00 0.33 0.00 93 1013.1
20260906073536 71 347 1.0 2.0 0.00 0.33 0.00 93 1013.3
20260906073353 71 347 0.0 0.0 0.00 0.33 0.00 92 1013.2
20260906072854 71 347 0.0 0.0 0.00 0.33 0.00 92 1013.2
20260906072344 71 347 0.0 1.0 0.00 0.33 0.00 92 1013.3
20260906071528 71 347 0.0 3.0 0.00 0.33 0.00 93 1013.4
20260906071355 71 347 1.0 3.0 0.00 0.33 0.00 93 1013.4
20260906070855 71 347 0.0 0.0 0.00 0.33 0.00 93 1013.5
20260906070021 71 347 0.0 0.0 0.00 0.33 0.00 93 1013.5
20260906065509 71 347 0.0 0.0 0.00 0.33 0.00 92 1013.5
20260906065006 71 347 0.0 0.0 0.00 0.33 0.00 92 1013.4
20260906064506 71 347 0.0 0.0 0.00 0.33 0.00 92 1013.4
20260906064145 72 347 0.0 0.0 0.00 0.33 0.00 92 1013.4
20260906064108 71 347 0.0 0.0 0.00 0.33 0.00 92 1013.3
20260906063000 72 347 0.0 0.0 0.00 0.33 0.00 92 1013.3
20260906062500 72 347 0.0 0.0 0.00 0.33 0.00 92 1013.3
20260906062220 72 347 0.0 0.0 0.00 0.33 0.00 92 1013.6
20260906062129 72 347 0.0 0.0 0.00 0.33 0.00 92 1013.4
20260906061005 72 347 0.0 0.0 0.00 0.33 0.00 92 1013.7
20260906060847 72 347 0.0 0.0 0.00 0.33 0.00 92 1013.7
20260906060001 72 347 0.0 0.0 0.00 0.33 0.00 93 1013.8
20260906055501 72 347 0.0 0.0 0.00 0.33 0.00 92 1013.7
20260906055003 72 347 0.0 0.0 0.00 0.33 0.00 92 1013.8
20260906054819 72 347 0.0 0.0 0.00 0.33 0.00 92 1013.8
20260906054319 72 347 0.0 0.0 0.00 0.33 0.00 92 1013.8
20260906053504 72 347 0.0 2.0 0.00 0.33 0.00 93 1013.8
20260906053002 72 347 1.0 3.0 0.00 0.33 0.00 92 1013.8
20260906052502 72 347 2.0 3.0 0.00 0.33 0.00 92 1013.8
20260906052323 73 347 1.0 2.0 0.00 0.33 0.00 92 1013.8
20260906051501 73 347 1.0 2.0 0.00 0.33 0.00 92 1013.7
20260906051005 73 347 0.0 0.0 0.00 0.33 0.00 92 1013.6
20260906050504 73 347 0.0 0.0 0.00 0.33 0.00 92 1013.7
20260906050004 73 347 0.0 0.0 0.00 0.33 0.00 91 1013.7
20260906045829 73 347 0.0 0.0 0.00 0.33 0.00 91 1013.7
20260906045006 73 347 0.0 0.0 0.00 0.33 0.00 91 1013.6
20260906044502 73 347 0.0 0.0 0.00 0.33 0.00 91 1013.6
20260906044002 73 347 0.0 0.0 0.00 0.33 0.00 91 1013.6
20260906043832 73 347 0.0 0.0 0.00 0.33 0.00 91 1013.6
20260906043004 73 347 0.0 0.0 0.00 0.33 0.00 92 1013.6
20260906042501 73 347 0.0 0.0 0.00 0.33 0.00 91 1013.5
20260906042002 73 347 0.0 1.0 0.00 0.33 0.00 91 1013.4
20260906041502 74 347 0.0 1.0 0.00 0.33 0.00 91 1013.3
20260906041004 74 347 0.0 0.0 0.00 0.33 0.00 91 1013.2
20260906040503 74 347 0.0 1.0 0.00 0.33 0.00 91 1013.2
20260906040002 74 347 0.0 2.0 0.00 0.33 0.00 91 1013.1
20260906035502 74 347 0.0 2.0 0.00 0.33 0.33 91 1013.1
20260906035003 74 347 0.0 0.0 0.00 0.33 0.33 91 1013.2
20260906034502 74 347 0.0 2.0 0.00 0.33 0.33 91 1013.2
20260906034002 74 347 1.0 3.0 0.00 0.33 0.33 92 1013.3
20260906033501 74 347 2.0 3.0 0.00 0.33 0.33 92 1013.3
20260906033002 74 5 1.0 3.0 0.00 0.33 0.33 91 1013.3
20260906032501 74 132 0.0 0.0 0.00 0.33 0.33 91 1013.2
20260906032001 74 132 0.0 0.0 0.00 0.33 0.33 91 1013.1
20260906031502 74 132 0.0 0.0 0.00 0.33 0.33 91 1013.1
20260906031003 74 132 0.0 0.0 0.00 0.33 0.33 91 1013.1
20260906030502 74 132 0.0 0.0 0.00 0.33 0.33 90 1013.0
20260906030005 74 132 0.0 0.0 0.00 0.33 0.33 90 1012.9
20260906025821 74 132 0.0 0.0 0.00 0.33 0.33 90 1012.9
20260906025001 74 132 0.0 0.0 0.00 0.33 0.33 89 1012.9
20260906024502 75 132 0.0 0.0 0.00 0.33 0.33 90 1012.9
20260906024002 75 132 0.0 0.0 0.00 0.33 0.33 89 1012.9
20260906023501 75 132 0.0 0.0 0.00 0.33 0.33 89 1012.9
20260906023001 75 132 0.0 0.0 0.00 0.33 0.33 89 1012.9
20260906022504 75 132 0.0 0.0 0.00 0.33 0.33 89 1012.9
20260906022323 75 132 0.0 0.0 0.00 0.33 0.33 88 1012.7
20260906021501 75 132 0.0 0.0 0.00 0.33 0.33 88 1012.7
20260906021024 76 132 0.0 0.0 0.00 0.33 0.33 88 1012.6
20260906021017 75 132 0.0 0.0 0.00 0.33 0.33 88 1012.6
20260906021003 75 132 0.0 0.0 0.00 0.33 0.33 88 1012.6
20260906015450 76 132 0.0 0.0 0.00 0.33 0.33 88 1012.7
20260906014941 76 132 0.0 0.0 0.00 0.33 0.33 87 1012.6
20260906014432 76 132 0.0 0.0 0.00 0.33 0.33 87 1012.5
20260906013926 76 132 0.0 0.0 0.00 0.33 0.33 87 1012.5
20260906013426 76 132 0.0 0.0 0.00 0.33 0.33 87 1012.4
20260906012922 76 132 0.0 0.0 0.00 0.33 0.33 87 1012.4
20260906012407 77 132 0.0 0.0 0.00 0.33 0.33 86 1012.5
20260906011904 77 132 0.0 0.0 0.00 0.33 0.33 85 1012.4
20260906011404 77 132 0.0 0.0 0.00 0.33 0.33 85 1012.3
20260906010903 77 132 0.0 0.0 0.00 0.33 0.33 85 1012.3
20260906010403 77 132 0.0 0.0 0.00 0.33 0.33 85 1012.1
20260906005907 78 132 0.0 0.0 0.00 0.33 0.33 84 1012.1
20260906005725 78 132 0.0 0.0 0.00 0.33 0.33 84 1012.1
20260906004903 78 132 0.0 0.0 0.00 0.33 0.33 84 1012.0
20260906004404 79 132 0.0 0.0 0.00 0.33 0.33 84 1012.2
20260906003905 79 132 0.0 0.0 0.00 0.33 0.33 83 1012.2
20260906003403 79 132 0.0 0.0 0.00 0.33 0.33 82 1012.3
20260906002902 80 132 0.0 0.0 0.00 0.33 0.33 82 1012.2
20260906002404 80 132 0.0 0.0 0.00 0.33 0.33 81 1012.4
20260906001902 81 132 0.0 0.0 0.00 0.33 0.33 80 1012.4
20260906001721 82 132 0.0 0.0 0.00 0.33 0.33 79 1012.5
20260906001218 82 132 0.0 0.0 0.00 0.33 0.33 78 1012.5
20260906000719 83 132 0.0 0.0 0.00 0.33 0.33 78 1012.6
20260905235903 83 132 0.0 1.0 0.00 0.33 0.33 76 1012.7
20260905235402 84 132 0.0 3.0 0.00 0.33 0.33 77 1012.7
20260905235221 84 132 2.0 4.0 0.00 0.33 0.33 75 1012.6
20260905234402 85 294 2.0 4.0 0.00 0.33 0.33 73 1012.6
20260905233904 85 114 2.0 4.0 0.00 0.33 0.33 73 1012.7
20260905233731 86 0 1.0 4.0 0.00 0.33 0.33 75 1012.9
20260905233236 86 13 3.0 4.0 0.00 0.33 0.33 74 1012.6
20260905232402 87 120 1.0 7.0 0.00 0.33 0.33 73 1012.6
20260905231902 87 15 4.0 7.0 0.00 0.33 0.33 73 1012.8
20260905231403 88 96 4.0 7.0 0.00 0.33 0.33 75 1012.8
20260905230902 88 51 1.0 8.0 0.00 0.33 0.33 75 1012.8
20260905230607 89 5 3.0 12.0 0.00 0.33 0.33 74 1012.7
20260905230516 89 33 2.0 8.0 0.00 0.33 0.33 74 1012.8
20260905225739 90 14 3.0 12.0 0.00 0.33 0.33 71 1012.6
20260905224901 91 355 1.0 5.0 0.00 0.33 0.33 77 1012.8
20260905224400 90 344 0.0 1.0 0.00 0.33 0.33 75 1012.7
20260905223901 89 344 0.0 1.0 0.00 0.33 0.33 77 1012.5
20260905223403 88 344 0.0 2.0 0.00 0.33 0.33 79 1012.5
20260905222901 87 344 1.0 2.0 0.00 0.33 0.33 80 1012.5
20260905222401 87 344 0.0 2.0 0.00 0.33 0.33 80 1012.5
20260905221900 87 344 1.0 2.0 0.00 0.33 0.33 82 1012.4
20260905221400 87 344 0.0 2.0 0.00 0.33 0.33 81 1012.5
20260905220902 87 344 0.0 2.0 0.00 0.33 0.33 80 1012.4
20260905220404 87 344 0.0 5.0 0.00 0.33 0.33 80 1012.3
20260905215902 87 344 3.0 8.0 0.00 0.33 0.33 77 1012.2
20260905215402 87 336 5.0 10.0 0.00 0.33 0.33 78 1012.3
20260905214902 88 0 3.0 10.0 0.00 0.33 0.33 77 1012.5
20260905214402 88 349 2.0 7.0 0.00 0.33 0.33 78 1012.4
20260905213902 88 5 0.0 1.0 0.00 0.33 0.33 80 1012.4
20260905213402 88 5 0.0 0.0 0.00 0.33 0.33 77 1012.5
20260905213104 89 5 0.0 2.0 0.00 0.33 0.33 74 1012.6
20260905213014 89 5 0.0 0.0 0.00 0.33 0.33 76 1012.6
20260905211902 90 5 1.0 2.0 0.00 0.33 0.33 73 1012.5
20260905211400 91 5 1.0 2.0 0.00 0.33 0.33 72 1012.7
20260905210903 92 5 1.0 2.0 0.00 0.33 0.33 72 1012.7
20260905210402 93 5 1.0 3.0 0.00 0.33 0.33 70 1012.5
20260905205901 94 5 1.0 3.0 0.00 0.33 0.33 70 1012.4
20260905205401 94 355 2.0 3.0 0.00 0.33 0.33 67 1012.7
20260905204900 95 30 2.0 4.0 0.00 0.33 0.33 68 1012.6
20260905204401 95 107 2.0 4.0 0.00 0.33 0.33 62 1012.6
20260905203901 95 167 2.0 4.0 0.00 0.33 0.33 64 1012.6
20260905203401 95 167 3.0 4.0 0.00 0.33 0.33 62 1012.6
20260905202901 96 124 2.0 4.0 0.00 0.33 0.33 60 1012.7
20260905202621 96 80 1.0 3.0 0.00 0.33 0.33 61 1013.0
20260905202518 96 80 1.0 3.0 0.00 0.33 0.33 64 1012.8
20260905201739 96 123 0.0 3.0 0.00 0.33 0.33 63 1013.1
20260905200903 96 123 2.0 4.0 0.00 0.33 0.33 65 1013.0
20260905200403 96 123 2.0 4.0 0.00 0.33 0.33 65 1013.2
20260905195902 96 130 0.0 4.0 0.00 0.33 0.33 64 1013.3
20260905195403 96 108 2.0 4.0 0.00 0.33 0.33 61 1013.4
20260905194904 96 151 2.0 4.0 0.00 0.33 0.33 64 1013.4
20260905194830 95 80 2.0 3.0 0.00 0.33 0.33 64 1013.5
20260905194451 95 34 1.0 3.0 0.00 0.33 0.33 62 1013.4
20260905194423 96 45 2.0 4.0 0.00 0.33 0.33 63 1013.4
20260905192903 95 355 1.0 3.0 0.00 0.33 0.33 66 1013.6
20260905192404 95 109 1.0 6.0 0.00 0.33 0.33 63 1013.5
20260905191958 95 347 0.0 4.0 0.00 0.33 0.33 62 1013.8
20260905191951 95 104 2.0 4.0 0.00 0.33 0.33 61 1013.7
20260905191929 95 140 2.0 6.0 0.00 0.33 0.33 62 1013.6
20260905190403 95 347 1.0 4.0 0.00 0.33 0.33 62 1014.1
20260905185902 94 153 1.0 6.0 0.00 0.33 0.33 62 1014.1
20260905185403 94 170 4.0 6.0 0.00 0.33 0.33 62 1014.2
20260905184903 94 167 2.0 5.0 0.00 0.33 0.33 65 1014.3
20260905184405 94 188 2.0 5.0 0.00 0.33 0.33 63 1014.3
20260905184231 94 175 2.0 4.0 0.00 0.33 0.33 65 1014.3
20260905183403 94 148 2.0 4.0 0.00 0.33 0.33 65 1014.4
20260905182901 93 351 1.0 6.0 0.00 0.33 0.33 63 1014.6
20260905182403 93 52 4.0 6.0 0.00 0.33 0.33 63 1014.7
20260905181901 93 144 1.0 4.0 0.00 0.33 0.33 63 1014.7
20260905181400 93 101 1.0 4.0 0.00 0.33 0.33 65 1014.8
20260905180902 93 173 3.0 6.0 0.00 0.33 0.33 63 1014.8
20260905180733 93 173 1.0 6.0 0.00 0.33 0.33 64 1014.8
20260905180233 92 157 2.0 5.0 0.00 0.33 0.33 66 1014.7
20260905175402 92 136 1.0 6.0 0.00 0.33 0.33 66 1014.8
20260905174900 92 192 3.0 6.0 0.00 0.33 0.33 64 1014.7
20260905174403 92 238 1.0 3.0 0.00 0.33 0.33 69 1014.8
20260905173905 92 93 1.0 7.0 0.00 0.33 0.33 65 1014.9
20260905173724 91 175 2.0 7.0 0.00 0.33 0.33 68 1014.8
20260905173212 91 109 2.0 6.0 0.00 0.33 0.33 67 1014.9
20260905172341 91 213 3.0 6.0 0.00 0.33 0.33 68 1015.1
20260905172203 91 127 1.0 8.0 0.00 0.33 0.33 69 1015.0
20260905171330 90 141 5.0 8.0 0.00 0.33 0.33 69 1014.8
20260905170830 90 215 2.0 9.0 0.00 0.33 0.33 69 1014.9
20260905170700 90 153 5.0 9.0 0.00 0.33 0.33 68 1015.0
20260905165828 91 128 4.0 8.0 0.00 0.33 0.33 68 1015.0
20260905165329 90 147 4.0 12.0 0.00 0.33 0.33 66 1015.0
20260905164828 90 131 5.0 12.0 0.00 0.33 0.33 68 1015.0
20260905164328 90 195 3.0 8.0 0.00 0.33 0.33 70 1015.0
20260905163829 90 144 5.0 9.0 0.00 0.33 0.33 70 1015.0
20260905163330 89 144 4.0 9.0 0.00 0.33 0.33 71 1015.0
20260905162829 89 157 4.0 8.0 0.00 0.33 0.33 69 1015.1
20260905162331 89 174 4.0 8.0 0.00 0.33 0.33 69 1015.2
20260905161827 89 174 4.0 7.0 0.00 0.33 0.33 74 1015.2
20260905161322 88 155 5.0 9.0 0.00 0.33 0.33 71 1015.3
20260905161156 88 156 5.0 11.0 0.00 0.33 0.33 71 1015.3
20260905160317 88 131 8.0 11.0 0.00 0.33 0.33 70 1015.2
20260905155817 88 161 4.0 11.0 0.00 0.33 0.33 71 1015.3
20260905155309 88 119 3.0 10.0 0.00 0.33 0.33 71 1015.3
20260905154809 87 129 7.0 10.0 0.00 0.33 0.33 71 1015.4
20260905154304 88 147 6.0 9.0 0.00 0.33 0.33 71 1015.6
20260905153802 87 188 5.0 8.0 0.00 0.33 0.33 72 1015.4
20260905153303 87 136 2.0 8.0 0.00 0.33 0.33 75 1015.4
20260905152802 86 102 4.0 11.0 0.00 0.33 0.33 74 1015.2
20260905152305 86 116 2.0 12.0 0.00 0.33 0.33 75 1015.4
20260905151802 86 125 6.0 12.0 0.00 0.33 0.33 73 1015.3
20260905151300 85 130 5.0 11.0 0.00 0.33 0.33 75 1015.4
20260905150800 85 105 4.0 9.0 0.00 0.33 0.33 75 1015.7
20260905150301 85 55 3.0 9.0 0.00 0.33 0.33 74 1015.6
20260905145800 85 140 4.0 9.0 0.00 0.33 0.33 76 1015.6
20260905145638 84 181 2.0 9.0 0.00 0.33 0.33 77 1015.6
20260905145137 84 69 4.0 9.0 0.00 0.33 0.33 76 1015.4
20260905144301 84 144 2.0 8.0 0.00 0.33 0.33 80 1015.7
20260905143801 83 122 2.0 8.0 0.00 0.33 0.33 81 1015.7
20260905143301 82 355 3.0 8.0 0.00 0.33 0.33 81 1015.8
20260905143141 82 99 4.0 8.0 0.00 0.33 0.33 83 1015.8
20260905142301 81 152 1.0 6.0 0.00 0.33 0.33 86 1016.0
20260905141800 80 64 2.0 6.0 0.00 0.33 0.33 88 1015.7
20260905141301 80 78 1.0 6.0 0.00 0.33 0.33 87 1015.6
20260905140802 79 23 1.0 7.0 0.00 0.33 0.33 90 1015.8
20260905140637 79 32 2.0 10.0 0.00 0.33 0.33 89 1015.9
20260905135801 78 49 3.0 10.0 0.00 0.33 0.33 89 1015.8
20260905135300 78 49 3.0 10.0 0.00 0.33 0.33 89 1016.0
20260905134800 78 38 2.0 6.0 0.00 0.33 0.33 90 1015.9
20260905134300 79 331 1.0 2.0 0.00 0.33 0.33 91 1015.4
20260905133804 79 331 0.0 0.0 0.00 0.33 0.33 91 1015.4
20260905133302 79 331 0.0 0.0 0.01 0.33 0.33 92 1015.3
20260905132805 78 331 0.0 1.0 0.01 0.33 0.33 92 1015.4
20260905132301 78 331 0.0 2.0 0.03 0.33 0.33 93 1015.6
20260905131803 78 331 0.0 2.0 0.04 0.33 0.33 94 1015.6
20260905131301 77 331 1.0 2.0 0.05 0.33 0.33 94 1015.6
20260905130801 77 331 0.0 0.0 0.07 0.33 0.33 95 1015.4
20260905130302 76 331 0.0 1.0 0.09 0.33 0.33 95 1015.4
20260905125801 76 331 0.0 2.0 0.12 0.22 0.33 95 1015.4
20260905125305 75 331 1.0 2.0 0.14 0.22 0.33 96 1015.3
20260905124800 74 331 0.0 0.0 0.17 0.22 0.33 95 1015.3
20260905124636 73 331 0.0 0.0 0.20 0.22 0.33 94 1015.2
20260905123806 73 331 0.0 0.0 0.22 0.22 0.33 94 1015.2
20260905123302 73 331 0.0 1.0 0.22 0.22 0.32 93 1015.1
20260905122804 72 331 0.0 1.0 0.23 0.22 0.31 93 1015.1
20260905122301 72 331 0.0 1.0 0.23 0.22 0.30 93 1015.1
20260905121802 72 294 0.0 0.0 0.23 0.22 0.29 93 1015.0
20260905121627 72 294 0.0 0.0 0.23 0.22 0.27 93 1015.0
20260905120803 72 294 0.0 1.0 0.22 0.22 0.25 92 1015.0
20260905120632 72 294 0.0 2.0 0.21 0.22 0.23 92 1015.0
20260905115804 72 78 1.0 3.0 0.19 0.03 0.21 92 1015.0
20260905115636 72 290 2.0 3.0 0.18 0.03 0.18 91 1014.9
20260905114805 72 273 0.0 0.0 0.16 0.03 0.16 91 1015.1
20260905114302 72 273 0.0 2.0 0.13 0.03 0.13 91 1015.1
20260905113801 72 273 1.0 2.0 0.11 0.03 0.11 91 1015.1
20260905113259 72 273 1.0 2.0 0.10 0.03 0.10 91 1015.0
20260905112755 72 273 1.0 6.0 0.09 0.03 0.08 90 1015.0
20260905112619 73 273 2.0 10.0 0.07 0.03 0.07 90 1014.9
20260905111947 73 265 4.0 12.0 0.05 0.03 0.05 89 1015.0
20260905111852 73 215 4.0 12.0 0.06 0.03 0.06 89 1014.8
20260905110730 74 143 6.0 13.0 0.04 0.03 0.04 89 1015.1
20260905110231 74 277 7.0 13.0 0.03 0.03 0.03 89 1015.3
20260905110100 74 333 6.0 25.0 0.02 0.00 0.02 89 1015.2
20260905105228 74 305 16.0 25.0 0.01 0.00 0.00 89 1014.9
20260905104729 74 306 2.0 8.0 0.00 0.00 0.00 94 1014.8
20260905104601 74 291 1.0 3.0 0.00 0.00 0.00 94 1014.7
20260905104053 73 291 2.0 3.0 0.00 0.00 0.00 94 1014.7
20260905103231 73 101 0.0 0.0 0.00 0.00 0.00 94 1014.4
20260905103042 73 101 0.0 0.0 0.00 0.00 0.00 93 1014.2
20260905102229 73 101 0.0 0.0 0.00 0.00 0.00 93 1014.2
20260905101728 73 101 0.0 0.0 0.00 0.00 0.00 93 1014.2
20260905101227 73 101 0.0 0.0 0.00 0.00 0.00 93 1014.2
20260905100723 73 101 0.0 0.0 0.00 0.00 0.00 93 1014.3
20260905100218 73 101 0.0 0.0 0.00 0.00 0.00 93 1014.3
20260905095716 73 101 0.0 0.0 0.00 0.00 0.00 93 1014.3
20260905095210 73 101 0.0 0.0 0.00 0.00 0.00 93 1014.2
20260905094706 73 101 0.0 0.0 0.00 0.00 0.00 93 1014.4
20260905094203 73 101 0.0 0.0 0.00 0.00 0.00 93 1014.3